Location: Brno
(49.2000°N, 16.6330°E)
Time: 08:04:59
(UTC+02:00)

X-37B - Pass Details

Date: 21 June 2021
Orbit: 383 x 392 km, 45.0° (Epoch: 01 July)

Event Time Altitude Azimuth Distance (km) Brightness Sun altitude
Exits shadow 01:33:10 17° 115° (ESE) 1,065 2.6 -16.9°
Drops below altitude 10° 01:34:05 10° 107° (ESE) 1,405 3.3 -16.8°
Sets 01:36:14 0° 99° (E) 2,260 4.5 -16.8°
